Temperature
16 16 16 16 16 16 16 16 16 16 16 16 16 16 16 16 16 15 15 15 15 15 15 15 15 15 15 15 15 15 15 15 15 15 15 15 15 15 15 15 15 14 14
16 16 16 16 16 16 16 16 16 16 16 16 15 15 15 15 15 15 15 15 15 15 15 15 15 15 15 14 14 14 15 15 15 15 15 15 15 14 14 14 14 14 14
16 16 16 16 16 16 16 16 16 16 16 15 15 15 15 15 15 15 15 15 15 15 15 15 15 15 15 14 14 14 14 14 14 14 14 14 14 14 14 14 14 14 14
16 16 15 15 16 15 16 16 16 15 16 15 15 15 15 15 15 15 15 15 15 15 15 15 15 15 15 14 14 14 14 14 14 14 14 14 14 14 14 14 14 14 14
15 15 15 15 15 15 15 15 15 15 15 15 15 15 15 15 15 15 15 15 15 15 15 14 14 15 14 14 14 14 14 14 14 14 14 14 14 14 14 14 14 14 14
15 15 15 15 15 15 15 15 15 15 15 15 15 15 15 15 15 15 15 15 15 15 15 14 14 14 14 14 14 14 14 14 14 14 14 14 14 13 13 14 14 14 14
15 15 15 15 15 15 15 15 15 15 15 15 15 15 15 15 15 15 15 15 15 14 14 14 14 14 14 14 14 14 14 14 14 14 14 14 13 13 13 13 14 14 14
14 14 14 14 14 15 15 15 15 15 15 14 14 15 15 15 15 15 15 15 14 14 14 14 14 14 14 14 14 14 14 14 14 14 14 13 13 13 13 13 13 13 13
14 14 14 14 14 14 14 14 14 14 14 14 14 14 14 14 14 14 15 14 14 14 14 14 14 14 14 14 14 14 14 14 14 13 13 13 13 13 13 13 13 13 13
13 13 14 14 14 14 14 14 14 14 14 14 14 14 14 14 14 14 14 14 14 14 14 14 14 14 14 14 14 13 13 13 13 13 13 13 13 13 13 13 13 13 13
13 13 13 13 13 13 13 13 14 14 14 14 14 14 14 14 14 14 14 14 14 14 14 14 14 14 14 13 13 13 13 13 13 13 13 12 12 12 12 12 12 12 12
13 13 13 13 13 13 13 13 13 14 14 14 14 14 14 14 14 14 14 14 14 14 14 13 13 13 13 13 13 13 13 13 13 13 12 12 12 12 12 12 12 12 12
12 12 12 12 13 13 13 13 13 13 13 13 14 14 14 14 14 14 14 14 13 13 13 13 13 13 13 13 13 13 13 13 12 12 12 12 12 12 11 11 11 11 11
12 12 12 12 12 12 13 13 13 13 13 13 13 13 13 13 13 13 13 13 13 13 13 13 13 13 13 13 13 12 12 12 12 12 12 12 11 11 11 11 11 11 11
12 12 12 12 12 12 12 12 12 13 13 13 13 13 13 13 13 13 13 13 13 13 13 13 13 13 13 12 12 12 12 12 12 12 11 11 11 11 11 11 11 11 11
11 11 11 11 11 12 12 12 12 12 12 12 12 13 13 13 13 13 13 13 13 13 13 12 12 12 12 12 12 12 12 12 12 11 11 11 11 11 11 11 10 10 10
11 11 11 11 11 11 12 12 12 12 12 12 12 12 12 12 12 12 12 13 12 12 12 12 12 12 12 12 12 12 12 11 11 11 11 11 11 10 10 10 10 10 10
11 11 11 11 11 11 11 11 12 12 12 12 12 12 12 12 12 12 12 12 12 12 12 12 12 12 12 11 11 11 11 11 11 11 11 10 10 10 10 10 10 10 10
11 11 11 11 11 11 11 11 11 11 11 11 11 11 11 11 12 12 12 12 12 12 12 11 11 11 11 11 11 11 11 11 11 10 10 10 10 10 10 10 10 10 10
10 10 10 10 10 10 10 10 10 11 11 11 11 11 11 11 11 11 11 11 11 11 11 11 11 11 11 11 11 10 10 10 10 10 10 10 9 9 9 9 9 9 9
10 10 10 10 10 10 10 10 10 10 10 10 10 11 11 11 11 11 11 11 11 11 11 11 11 11 10 10 10 10 10 10 10 9 9 9 9 9 9 9 9 9 9
10 10 10 10 10 10 10 10 10 10 10 10 10 10 10 10 10 10 10 10 10 10 10 10 10 10 10 10 10 10 9 9 9 9 9 9 9 9 9 9 9 8 8
9 9 10 10 10 10 10 10 10 10 10 10 10 10 10 10 10 10 10 10 10 10 10 10 10 10 9 9 9 9 9 9 8 8 9 8 8 8 8 8 8 8 8
9 9 9 9 9 9 9 9 10 10 10 10 10 9 9 10 10 9 9 9 9 9 9 9 9 9 9 9 9 9 9 8 8 8 8 8 8 8 8 8 8 8 8
9 9 9 9 9 9 9 9 9 9 10 9 9 9 9 9 9 9 9 9 9 9 9 9 9 9 9 8 8 8 8 8 8 7 7 8 8 8 7 7 7 7 7
9 9 9 9 9 9 9 9 9 9 9 9 9 9 9 9 9 9 9 9 9 8 8 8 9 8 8 8 8 8 8 7 7 7 7 7 7 8 7 7 7 7 7
Wind_Speed
2 3 8 9 10 10 9 9 9 10 10 10 10 10 10 10 9 9 9 9 8 8 8 8 8 8 8 9 9 9 9 8 8 8 7 7 7 7 7 7 7 6 7
4 5 9 10 10 10 10 9 10 9 9 10 10 9 9 9 9 9 8 8 8 7 7 7 7 7 7 8 8 8 7 7 7 7 7 6 6 6 6 6 5 5 6
5 6 8 9 10 10 10 10 10 9 9 9 9 9 9 9 8 8 8 7 7 7 7 6 6 6 6 6 6 6 6 6 6 6 6 5 4 5 5 5 5 5 6
5 6 7 9 9 9 10 10 10 10 9 9 9 9 8 8 8 7 7 6 6 6 6 6 6 6 6 6 6 6 6 6 6 6 5 4 3 4 4 4 4 5 5
4 5 7 9 9 9 9 9 9 10 9 9 9 9 9 8 8 7 7 7 6 6 6 6 6 6 5 5 6 6 7 7 7 6 5 4 3 3 4 3 3 4 4
4 5 7 8 8 9 9 9 9 8 9 9 9 8 8 8 7 7 7 6 6 5 6 6 6 6 5 5 6 6 6 6 6 6 5 4 3 3 4 3 4 4 4
4 4 7 8 7 8 8 9 9 8 8 9 9 8 8 7 7 7 6 6 6 6 6 5 5 5 5 5 5 6 6 6 6 5 3 3 2 3 3 3 3 3 3
4 3 6 7 7 8 8 8 9 8 7 7 8 8 8 7 7 6 6 6 6 6 5 5 5 5 5 5 6 6 6 6 5 4 3 2 2 2 2 3 3 3 3
3 3 4 6 6 7 7 7 8 8 7 7 7 7 8 7 7 6 6 5 6 5 5 5 5 5 5 5 5 5 6 6 5 3 2 2 2 1 2 2 2 3 3
3 3 3 5 5 5 6 7 8 7 7 6 6 7 7 7 7 6 5 5 5 5 5 5 4 4 5 5 5 5 6 6 5 4 2 2 2 2 3 3 3 3 3
3 2 3 4 4 5 5 6 7 7 7 6 7 6 7 6 6 5 5 5 5 4 4 4 4 4 5 6 5 5 5 5 4 4 2 2 2 2 3 3 3 3 3
4 3 3 4 4 4 4 5 5 5 6 6 6 6 6 6 5 5 5 5 4 4 4 4 5 5 5 5 5 5 5 5 4 3 3 3 2 2 2 3 3 3 2
4 4 4 4 4 4 4 4 4 4 5 5 6 6 6 6 5 5 5 5 5 5 5 5 6 6 5 5 5 5 5 4 4 3 4 4 3 3 3 3 3 3 3
4 3 3 4 4 4 4 4 3 4 4 4 4 6 6 4 4 4 4 4 5 4 5 5 5 5 5 5 4 4 4 4 4 3 4 5 4 4 4 4 4 3 3
4 4 3 3 3 3 4 3 3 3 3 4 4 5 6 4 3 3 3 4 4 4 4 4 4 4 4 4 4 4 4 4 4 4 4 6 6 6 6 5 5 4 3
4 4 4 4 3 3 3 3 3 4 4 4 4 4 5 5 4 3 3 3 3 3 3 4 3 3 3 3 3 4 4 4 4 4 5 5 6 7 7 7 6 5 4
3 3 4 4 3 3 4 3 4 4 5 4 3 4 4 5 5 5 3 2 3 3 4 4 4 4 3 3 2 3 3 4 4 4 5 5 6 6 6 6 6 6 5
3 3 3 3 4 3 3 3 4 5 5 4 4 4 4 4 5 5 3 2 3 4 4 3 2 2 2 2 2 1 2 3 4 4 5 6 6 6 6 7 7 7 7
3 3 2 2 4 3 3 4 4 4 4 4 5 4 4 4 4 5 4 3 4 4 3 2 2 2 2 1 1 2 2 2 2 4 5 5 6 6 5 5 6 6 7
3 3 2 3 3 4 3 3 3 3 3 4 4 4 4 4 4 5 4 4 4 3 2 2 2 2 1 1 1 2 2 1 2 3 3 4 5 5 5 5 5 4 5
3 3 2 2 4 4 3 3 2 2 2 2 2 4 4 4 4 4 3 3 3 2 2 3 2 3 2 1 2 2 2 2 2 2 2 3 3 4 5 4 4 4 4
4 3 3 3 4 4 3 2 2 2 1 1 2 2 3 4 4 3 3 2 3 3 3 2 3 2 1 1 2 2 1 2 2 1 1 1 2 3 3 4 4 3 3
4 4 3 4 4 4 4 3 3 3 2 2 2 1 1 3 3 3 3 3 3 2 3 2 3 3 2 1 1 2 2 2 2 2 1 1 1 1 1 2 2 3 2
5 3 3 4 4 4 4 5 4 2 2 2 1 1 1 2 3 3 3 3 3 2 3 2 2 2 3 2 0 1 1 2 1 1 2 1 1 1 2 2 2 2 1
4 3 3 3 4 4 4 5 4 2 1 2 2 2 1 1 1 2 3 3 3 2 3 3 2 2 2 3 2 1 1 1 1 2 2 2 2 2 2 2 2 2 2
3 2 3 4 4 4 4 4 4 4 3 3 2 2 1 0 0 0 2 2 2 2 3 3 3 3 3 3 2 2 2 2 2 2 2 2 3 3 3 2 2 3 3
Wind_Direction
192 195 173 162 155 151 144 137 129 125 121 118 118 117 118 117 113 111 108 104 103 102 103 99 95 92 91 90 88 87 84 81 82 78 73 74 78 83 84 81 77 80 85
167 178 168 161 157 153 150 140 131 128 124 124 121 120 118 120 116 112 108 105 103 102 104 103 100 94 93 90 88 85 82 81 80 77 77 72 68 80 87 88 84 89 87
148 163 160 156 155 153 149 142 137 134 129 128 125 122 122 121 118 114 111 108 106 102 102 101 99 96 94 91 88 84 82 82 79 78 80 74 65 79 89 93 91 90 86
143 152 155 153 148 151 147 143 145 141 134 130 128 125 121 120 117 115 111 108 106 104 100 99 96 94 93 88 88 82 80 81 77 78 77 72 64 73 83 91 91 89 85
130 139 151 152 148 149 147 146 147 147 141 137 131 126 121 117 117 117 112 105 102 100 95 94 94 90 89 89 91 85 80 78 76 74 72 65 56 58 67 81 87 91 84
133 133 143 144 147 148 150 148 146 147 147 142 136 131 125 120 117 120 116 110 103 101 98 92 91 90 87 87 88 86 81 79 75 69 63 53 40 50 58 75 79 82 80
144 136 148 141 141 144 146 146 138 137 146 146 141 138 132 127 121 117 116 114 108 101 100 95 89 88 90 89 89 87 83 79 76 69 55 40 28 39 54 70 66 78 83
146 135 146 142 138 140 142 144 141 132 133 146 146 143 136 129 123 118 117 115 112 109 104 101 95 90 92 91 87 83 83 85 80 66 44 14 11 41 51 68 65 61 65
129 124 125 132 133 133 134 138 137 135 131 130 144 145 136 129 125 121 119 116 111 108 103 99 96 91 85 90 86 82 85 85 79 67 45 6 8 40 59 72 75 65 59
130 125 110 114 118 122 126 133 128 129 128 125 123 127 128 123 120 117 113 111 111 105 99 91 88 87 81 78 79 79 81 79 67 56 37 19 36 52 65 70 75 69 59
143 143 132 117 109 113 119 125 123 124 128 122 114 120 112 103 100 101 105 105 108 104 94 88 80 83 79 69 69 75 76 69 63 45 25 32 49 58 65 62 69 67 56
180 176 164 144 125 116 120 111 112 116 121 115 114 113 115 108 101 92 88 88 97 95 88 84 79 76 74 67 63 69 68 69 62 37 24 40 51 53 58 65 61 57 47
190 184 173 159 133 123 113 116 112 111 110 108 113 112 111 104 94 84 75 67 71 79 74 71 70 65 68 69 66 64 68 69 61 40 26 41 50 49 66 73 64 59 52
185 184 164 163 142 128 121 121 120 112 108 105 113 118 118 110 96 87 76 69 67 72 73 69 72 68 67 70 77 72 69 67 61 49 36 40 48 53 68 76 69 57 49
190 185 164 159 157 136 123 126 119 112 113 117 120 120 124 122 124 107 88 73 67 72 78 76 76 75 69 66 68 73 69 66 65 61 49 46 48 54 61 68 66 54 44
196 191 168 166 163 142 136 133 126 117 114 105 107 118 125 126 127 122 108 87 65 73 90 91 91 90 73 71 63 63 67 69 68 67 61 51 51 53 57 57 54 48 41
196 191 174 165 144 147 137 134 124 120 115 105 105 110 112 122 129 126 120 102 75 78 94 91 84 82 74 66 62 56 59 62 67 66 65 60 55 49 52 54 51 47 42
168 174 182 156 145 142 134 127 121 117 112 106 108 107 107 114 127 123 124 115 94 86 87 103 93 78 62 49 43 35 48 58 62 67 70 66 62 57 50 51 49 43 40
149 151 159 120 140 135 122 111 108 110 108 111 107 101 100 106 117 122 124 117 105 96 90 102 85 95 86 46 41 47 42 54 58 74 72 67 65 61 55 47 45 42 36
137 140 137 126 126 122 113 103 93 91 92 102 105 106 101 103 109 117 122 118 112 108 96 96 98 79 94 75 69 49 41 45 66 70 71 67 63 60 55 49 41 34 33
138 139 148 140 140 136 130 125 120 112 101 91 100 111 110 111 113 110 118 123 123 128 129 122 115 92 60 40 71 36 19 40 66 65 59 63 56 51 48 44 41 36 23
171 167 173 163 157 153 148 135 123 117 115 108 89 99 113 117 118 116 119 135 135 133 121 114 122 122 77 50 103 101 9 341 357 26 42 71 52 39 34 28 30 29 28
181 187 192 168 161 148 135 111 94 82 78 82 86 88 92 116 122 127 128 129 132 136 145 142 143 140 145 74 66 126 139 228 295 315 348 42 30 19 352 0 7 5 12
192 180 172 167 160 153 146 145 145 154 161 177 149 139 102 119 129 140 143 144 142 139 153 161 150 158 149 159 132 57 131 157 175 294 305 317 348 343 314 308 307 321 343
173 168 169 164 161 158 157 157 158 148 127 111 111 127 114 84 119 140 151 150 153 155 161 160 154 158 163 169 174 158 117 83 123 178 263 300 317 281 271 273 283 286 294
138 153 161 165 165 161 161 162 163 156 147 137 135 154 143 104 79 128 147 152 163 166 174 177 171 169 178 175 178 183 180 171 175 175 228 255 276 274 269 256 254 267 266
Height
1514 1516 1518 1520 1521 1523 1524 1525 1526 1527 1528 1529 1530 1531 1531 1532 1533 1533 1534 1535 1535 1536 1537 1537 1538 1539 1539 1539 1540 1540 1540 1541 1541 1541 1542 1542 1542 1543 1543 1543 1543 1544 1544
1513 1515 1517 1519 1521 1522 1523 1525 1526 1527 1528 1529 1530 1531 1531 1532 1533 1534 1534 1535 1535 1536 1537 1537 1538 1539 1539 1540 1540 1540 1541 1541 1542 1542 1542 1543 1543 1543 1544 1544 1544 1544 1545
1513 1515 1516 1518 1520 1521 1523 1524 1525 1526 1528 1529 1529 1530 1531 1532 1533 1534 1534 1535 1536 1536 1537 1537 1538 1538 1539 1540 1540 1541 1541 1542 1542 1542 1543 1543 1543 1544 1544 1544 1545 1545 1545
1513 1514 1516 1517 1519 1521 1522 1524 1525 1526 1527 1528 1529 1530 1531 1532 1533 1533 1534 1535 1535 1536 1537 1537 1538 1538 1539 1539 1540 1541 1541 1542 1542 1542 1543 1543 1544 1544 1544 1544 1545 1545 1545
1513 1514 1515 1517 1518 1520 1521 1523 1524 1526 1527 1528 1529 1530 1531 1532 1532 1533 1534 1534 1535 1536 1536 1537 1537 1538 1538 1539 1539 1540 1541 1541 1542 1542 1543 1543 1543 1544 1544 1544 1545 1545 1545
1512 1513 1514 1516 1518 1519 1521 1522 1523 1525 1526 1527 1528 1529 1530 1531 1532 1533 1533 1534 1534 1535 1536 1536 1537 1537 1538 1538 1539 1539 1540 1541 1541 1542 1542 1543 1543 1544 1544 1544 1544 1544 1545
1511 1513 1514 1515 1516 1518 1520 1521 1523 1524 1525 1526 1528 1529 1530 1531 1531 1532 1533 1533 1534 1534 1535 1535 1536 1537 1537 1538 1538 1539 1539 1540 1540 1541 1542 1542 1542 1543 1543 1543 1544 1544 1544
1510 1512 1513 1514 1516 1517 1519 1520 1522 1523 1524 1525 1526 1528 1529 1530 1531 1531 1532 1533 1533 1534 1534 1535 1535 1536 1536 1537 1537 1538 1538 1539 1540 1540 1541 1541 1542 1542 1542 1543 1543 1543 1543
1509 1511 1512 1514 1515 1516 1518 1519 1520 1522 1523 1524 1525 1527 1528 1529 1530 1531 1531 1532 1533 1533 1534 1534 1535 1535 1535 1536 1536 1537 1537 1538 1539 1539 1540 1540 1541 1541 1542 1542 1542 1542 1542
1508 1509 1511 1512 1513 1515 1516 1518 1519 1520 1522 1523 1524 1525 1527 1528 1529 1530 1530 1531 1532 1532 1533 1533 1534 1534 1535 1535 1536 1536 1537 1537 1538 1538 1539 1539 1540 1540 1540 1541 1541 1541 1541
1506 1507 1509 1510 1512 1513 1515 1516 1518 1519 1520 1522 1523 1524 1525 1527 1528 1529 1529 1530 1531 1532 1532 1532 1533 1533 1534 1534 1535 1535 1536 1536 1537 1537 1538 1538 1539 1539 1539 1540 1540 1540 1540
1503 1505 1507 1508 1510 1511 1513 1515 1516 1518 1519 1520 1521 1522 1524 1525 1526 1527 1528 1529 1530 1531 1531 1532 1532 1532 1533 1533 1534 1534 1535 1535 1536 1536 1536 1537 1538 1538 1538 1538 1538 1538 1538
1501 1503 1505 1506 1508 1509 1511 1513 1514 1516 1517 1518 1520 1521 1522 1523 1525 1526 1527 1528 1529 1529 1530 1531 1531 1531 1532 1532 1533 1533 1533 1534 1534 1535 1535 1536 1536 1537 1537 1537 1537 1537 1537
1499 1500 1503 1504 1505 1508 1509 1511 1513 1514 1515 1517 1518 1519 1521 1522 1523 1524 1525 1526 1527 1528 1529 1529 1530 1530 1531 1531 1532 1532 1532 1533 1533 1533 1534 1534 1535 1535 1536 1536 1536 1536 1535
1496 1498 1500 1502 1503 1505 1507 1509 1511 1512 1514 1515 1516 1518 1519 1520 1521 1522 1524 1524 1525 1526 1527 1528 1529 1529 1530 1530 1531 1531 1531 1531 1532 1532 1533 1533 1534 1534 1534 1535 1534 1534 1534
1494 1496 1498 1500 1501 1504 1506 1508 1509 1510 1512 1513 1515 1516 1517 1518 1519 1521 1522 1523 1524 1525 1526 1526 1527 1528 1528 1529 1529 1530 1530 1530 1530 1531 1531 1532 1532 1533 1533 1533 1533 1533 1533
1493 1495 1496 1498 1500 1502 1504 1506 1508 1509 1510 1511 1513 1514 1515 1517 1518 1519 1520 1521 1522 1523 1524 1525 1526 1527 1527 1528 1528 1528 1529 1529 1529 1529 1530 1530 1531 1531 1531 1531 1531 1531 1531
1491 1492 1494 1495 1498 1500 1502 1504 1506 1507 1509 1510 1511 1513 1514 1515 1516 1517 1518 1519 1521 1522 1523 1524 1524 1525 1526 1526 1526 1527 1527 1527 1527 1528 1528 1529 1529 1529 1529 1530 1530 1529 1529
1489 1491 1492 1493 1495 1498 1501 1503 1504 1506 1507 1508 1509 1511 1512 1513 1514 1515 1516 1517 1519 1520 1521 1522 1522 1523 1524 1524 1525 1525 1525 1526 1526 1526 1526 1527 1527 1527 1528 1528 1528 1528 1528
1488 1490 1491 1492 1494 1496 1499 1501 1503 1504 1505 1507 1508 1509 1510 1511 1512 1513 1514 1515 1517 1517 1519 1520 1520 1521 1522 1522 1523 1523 1523 1524 1524 1524 1525 1525 1525 1526 1526 1526 1526 1526 1526
1486 1487 1489 1491 1492 1494 1496 1498 1500 1502 1503 1505 1506 1507 1508 1509 1510 1511 1512 1513 1515 1516 1516 1517 1518 1519 1520 1521 1521 1521 1521 1522 1522 1522 1523 1523 1524 1524 1524 1524 1524 1523 1523
1484 1486 1488 1489 1491 1492 1495 1497 1499 1501 1502 1503 1504 1505 1507 1508 1508 1509 1510 1511 1512 1514 1514 1515 1516 1517 1518 1518 1519 1519 1519 1521 1520 1521 1521 1521 1521 1522 1522 1522 1521 1521 1521
1482 1484 1486 1487 1489 1491 1493 1496 1498 1500 1500 1501 1502 1504 1505 1506 1507 1508 1508 1509 1510 1511 1512 1513 1514 1514 1515 1516 1517 1518 1517 1517 1518 1519 1519 1519 1519 1519 1519 1519 1519 1518 1518
1480 1482 1484 1486 1488 1489 1491 1493 1495 1497 1498 1499 1501 1502 1503 1504 1505 1506 1507 1507 1508 1509 1510 1510 1511 1512 1513 1513 1514 1515 1516 1515 1516 1515 1516 1516 1516 1516 1517 1516 1516 1516 1515
1478 1480 1483 1485 1486 1488 1490 1492 1494 1495 1497 1498 1499 1500 1501 1502 1503 1504 1504 1505 1506 1507 1507 1508 1509 1509 1510 1511 1511 1512 1512 1512 1512 1513 1512 1512 1513 1513 1513 1513 1513 1513 1512
1476 1479 1480 1483 1485 1486 1488 1490 1491 1493 1494 1495 1497 1498 1499 1500 1501 1501 1502 1503 1504 1504 1505 1505 1506 1507 1507 1508 1508 1509 1509 1509 1509 1510 1509 1508 1508 1508 1509 1509 1509 1509 1509